Regional Weather Roundup
Issued by NWS

Home | Current Version | Previous Version | Text Only | Print | Product List | Glossary On
Versions: 1 2 3 4 5 6 7 8 9 10 11 12 13 14 15 16 17 18 19 20 21 22 23 24 25 26 27 28 29 30 31 32 33 34 35 36 37 38 39 40 41 42 43 44 45 46 47 48 49 50
000
ASHW40 PHFO 262230
RWRHI

WEATHER ROUNDUP FOR HAWAII
NATIONAL WEATHER SERVICE HONOLULU HI
1200 PM HST THU MAR 26 2015

THIS IS AN AUTOMATED REPORT THAT HAS NOT BEEN QUALITY CONTROLLED.

NOTE..."FAIR" INDICATES FEW OR NO CLOUDS BELOW 12,000 FEET WITH NO
SIGNIFICANT WEATHER AND/OR OBSTRUCTIONS TO VISIBILITY.

* - THESE SITES REPORT LIMITED FIELDS

HIZ001>004-262300-
KAUAI-NIIHAU-

CITY           SKY/WX    TMP DP  RH WIND       PRES   REMARKS
LIHUE APT      PTSUNNY   78  60  53 NE15      30.20F
PORT ALLEN*      N/A     81 N/A N/A E21G29      N/A
POIPU*           N/A     77 N/A N/A NE10G22     N/A
PRINCEVILLE*     N/A     72 N/A N/A MISG        N/A
KOKOLE POINT*  NOT AVBL
MOLOAA DAIRY*  NOT AVBL
WAIMEA HTS*    NOT AVBL
PUU OPAE*      NOT AVBL
PUU LUA*       NOT AVBL
MAKAHA RIDGE*  NOT AVBL
$$

HIZ005>011-262300-
OAHU-

CITY           SKY/WX    TMP DP  RH WIND       PRES   REMARKS
HONOLULU       MOSUNNY   78  62  57 NE20G31   30.13F
KALAELOA       SUNNY     79  61  53 VRB7G20   30.15F
KANEOHE MCB    CLOUDY    76  63  64 NE10      30.16F
WHEELER FIELD  FAIR      74  62  64 NE20G28   30.14F
BELLOWS*         N/A    N/A N/A N/A NE18        N/A
KAHUKU*          N/A    N/A N/A N/A NE10G22     N/A
WHEELER*       NOT AVBL
WAIANAE HARBOR NOT AVBL
DILLINGHAM*      N/A     77  63  61 MISG        N/A
KAHUKU TRN*      N/A     66  54  63 E12G30      N/A
KAWAILOA*        N/A    N/A N/A N/A E13G29      N/A
KII*             N/A     73  63  68 E18G26      N/A
MAKUA RANGE*     N/A     79  61  53 NE14G24     N/A
OAHU FOREST NW NOT AVBL
SCHOFIELD BRK*   N/A     63  52  67 MISG        N/A
SCHOFIELD S*   NOT AVBL
WAIANAE VLY*   NOT AVBL
KUAOKALA*      NOT AVBL
HONOULIUULI*   NOT AVBL
MOKUOLOE IS*   NOT AVBL
PALEHUA*       NOT AVBL
WAIAWA PHB*    NOT AVBL
$$

HIZ012>013-262300-
MOLOKAI-

CITY           SKY/WX    TMP DP  RH WIND       PRES   REMARKS
MOLOKAI AIRPT  MOSUNNY   75  64  68 NE20G32   30.14F
KALAUPAPA      NOT AVBL
MAKAPULAPAI*   NOT AVBL
MOLOKAI 1*     NOT AVBL
PUU ALII*        N/A     57  57 100 CALM        N/A
$$

HIZ016-262300-
KAHOOLAWE-

CITY           SKY/WX    TMP DP  RH WIND       PRES   REMARKS
KAHOOLAWE*     NOT AVBL
HAKIOAWA*        N/A     71  65  81 MISG      30.52F
HONOKANAIA*      N/A     80  67  65 N14G26    30.13F
KANELOA*         N/A     75  66  73 MISG      29.34S
KEALIALALO*      N/A    N/A N/A N/A NE10G26   30.12F
LUA MAKIKA*    NOT AVBL
$$

HIZ014>015-262300-
LANAI-

CITY           SKY/WX    TMP DP  RH WIND       PRES   REMARKS
LANAI CITY     MOSUNNY   82  64  54 NE26      30.16
LANAI 1*       NOT AVBL
$$

HIZ017>028-262300-
MAUI-

CITY           SKY/WX    TMP DP  RH WIND       PRES   REMARKS
KAHULUI        PTSUNNY   78  66  66 NE18G28   30.15F
KAPALUA-W MAUI LGT RAIN  73  66  78 NE20G29   30.14
HANA AIRPORT   CLOUDY    73  68  83 NE10      30.19F
HANA*            N/A     73 N/A N/A E12G20      N/A
HALEAKALA SUMM   N/A     55  39  54 S5G36       N/A
MAALAEA BAY*   NOT AVBL
HALEAKALA*     NOT AVBL
KAUPO GAP*     NOT AVBL
KULA 1*          N/A     59  54  82 NW6         N/A
$$

HIZ023>026-262300-
BIG ISLAND OF HAWAII COAST AND LOWER SLOPES-

CITY           SKY/WX    TMP DP  RH WIND       PRES   REMARKS
KAILUA KONA    CLOUDY    81  67  62 S10       30.07F
HILO           MOSUNNY   81  66  60 NE14      30.14F
HONOKAA*       NOT AVBL
KAWAIHAE MWT*    N/A     84 N/A N/A SW5G13      N/A
KAWAIHAE*        N/A     81 N/A N/A SW15        N/A
SOUTH POINT*     N/A     77 N/A N/A E24G35      N/A
UPOLU AIRPORT*   N/A    N/A N/A N/A NE29G39     N/A
KAMUELA*       CLEAR     68  66  94 NE29      30.18S
HAKALAU*         N/A     56  55  96 NE5G12      N/A
KALOKO-HONOKO*   N/A     84  68  58 SW9       30.06F
PALI 2*          N/A     75  57  53 NE21G32     N/A
KEALAKOMO*       N/A     82  63  51 NE20G30     N/A
KAUPULEHU*     NOT AVBL
KAPAPALA*        N/A     75  64  67 SE13G22     N/A
LOWER KAHUKU*    N/A    N/A N/A N/A NE3G14      N/A
PUHE CS*         N/A     86  68  54 SW3G10      N/A
PUHO CS*         N/A     82  66  57 SW3G9       N/A
PTA KEAMUKU*     N/A    N/A N/A N/A CALM        N/A
WAIKOLOA*      NOT AVBL
$$

HIZ027>028-262300-
BIG ISLAND OF HAWAII INTERIOR AND SUMMMITS-

CITY           SKY/WX    TMP DP  RH WIND       PRES   REMARKS
BRADSHAW FIELD SUNNY     65  52  62 SW6       30.38F
MK VISITOR CEN NOT AVBL
MAUNA KEA*       N/A     41  -4  15 SE16        N/A
MAUNA LOA*       N/A    N/A N/A N/A MISG        N/A
MAUNA LOA 1*   NOT AVBL
PTA KIPUKA*      N/A     70  52  52 NW8G16      N/A
PTA RANGE 17*    N/A     70  50  49 SE8G22      N/A
PTA WEST*        N/A     73  55  53 W10G20      N/A
NENE CABIN*      N/A     52 N/A N/A E6G12       N/A
AHUMOA*        NOT AVBL
PTA PORTABLE*  NOT AVBL
PUU MALI*      NOT AVBL
$$

HIC003-262300-
NORTHWEST ISLANDS-

CITY           SKY/WX    TMP DP  RH WIND       PRES   REMARKS
MIDWAY ISLAND  SUNNY     73  63  68 SW13      30.12S
MIDWAY NOS*    NOT AVBL
FRENCH FRIGATE NOT AVBL
$$

PHZ110>124-180-262300-
BUOY REPORTS

STATION/POSITION TIME  TEMP    WIND        PRES    WAVE   SWELL
                       AIR SEA DIR/SP/G            HT/PER HT/DIR
                 (UTC) (F)     (DEG/KT/KT) (MB)    (FT/S) (FT/D)
BUOY 51001       NOT AVBL
BUOY 51101       2200   69 73   90/ 16/ 19 1023.5F   8/11
BUOY 51100       2200           60/ 17       N/A
BUOY 51003       2200   76 78   70/ 19/ 21 1019.5F  10/ 8   5
BUOY 51004       2141   76 77   50/ 17/ 21 1017.8F   6/ 8   3/ 80
BARBERS PT BUOY  NOT AVBL
WAIMEA BAY BUOY  2200      76                N/A     8/12
KAILUA BAY BUOY  2200      76                N/A     9/ 8   3
LANAI BUOY       2200      77                N/A     4/12   3/270
BARBERS PT 2     2200      76                N/A     4/13   3/220
PAUWELA MAUI     2200      76                N/A     9/11   3/340
HILO             2200      77                N/A     7/ 8   2/ 10
KANEOHE BAY BUOY 2200      76                N/A     8/11   3/350
HANALEI KAUAI    2200      75                N/A     8/10
KAHULUI HARBOR   2200   74 77   40/ 14/ 20 1020.7F
HONOLULU HARBOR  2200   75 76   50/  9/ 18 1020.6F
KILO NALU        NOT AVBL
HILO HARBOR      2200          360/  9/ 16 1020.3F
MOKUOLOE         2200   73 76   50/ 12/ 17 1022.1F
NAWILIWILI       2200   73 77   60/ 13/ 17 1022.0F
WHOTS BUOY       NOT AVBL
BUOY 51028       NOT AVBL
$$

......................KEY........................................
  SKY/WX - SKY CONDITIONS/PRESENT WEATHER
  TMP    - TEMPERATURE IN FAHRENHEIT
  DWPT   - DEWPOINT IN FAHRENHEIT
  RH     - RELATIVE HUMIDITY IN PERCENT
  WIND   - DIRECTION AND SPEED /MPH FOR ISLANDS...KTS FOR BUOYS/
  PRES   - MEAN SEA LEVEL PRESSURE IN INCHES OF HG
  VSB    - VISIBILITY IN MILES
  HX     - HEAT INDEX
  WCI    - WIND CHILL INDEX
  VRB    - VARIABLE WIND DIRECTION
  N/A    - NOT AVAILABLE



USA.gov is the U.S. government's official web portal to all federal, state and local government web resources and services.